Terug naar catalogus

CZ-3B DEB

LostGTO
NORAD 48546·DEBRIS·🇨🇳 China

Gelanceerd Dec 19, 2011 vanaf Xichang Satellite Launch Center

Loading…

TLE

VerouderdSource: Space-Track

Epoch: Nov 15, 2024, 05:47 UTC

1 48546U 11077AS  24320.24161708  .00000073  00000-0  20970-1 0  9992
2 48546  20.1388 185.0298 7366554 218.5572  54.2335  1.85903440 30874

Volg CZ-3B DEB in realtime met AllMySat

Download on the App Store